Date,TemperatureHighF,TemperatureAvgF,TemperatureLowF,DewpointHighF,DewpointAvgF,DewpointLowF,HumidityHigh,HumidityAvg,HumidityLow,PressureMaxIn,PressureMinIn,WindSpeedMaxMPH,WindSpeedAvgMPH,GustSpeedMaxMPH,PrecipitationSumIn
2012-12-1,67.6,61.7,58.0,65.0,60.6,57.0,97,96,91,30.32,30.23,4,0,11,0.16
2012-12-2,78.6,64.6,53.4,69.0,61.0,53.0,98,89,65,30.33,30.25,8,1,13,0.00
2012-12-3,70.6,64.9,57.2,66.0,63.1,56.0,97,93,84,30.33,30.24,4,1,7,0.01
2012-12-4,77.7,63.4,52.9,68.0,58.3,52.0,97,85,57,30.33,30.24,6,1,11,0.00
2012-12-5,75.0,62.0,51.5,67.0,58.6,51.0,98,89,63,30.24,30.10,7,1,11,0.01
2012-12-6,71.8,65.2,62.0,67.0,62.9,61.0,96,92,80,30.11,30.02,11,3,15,0.02
2012-12-7,64.5,61.4,57.5,62.0,60.0,56.0,96,95,91,30.05,29.98,11,2,14,0.00
2012-12-8,68.2,61.6,56.9,64.0,60.3,56.0,97,95,86,30.09,30.01,4,0,6,0.00
2012-12-9,80.5,65.4,56.1,72.0,63.2,55.0,98,93,76,30.11,30.01,7,1,9,0.00
2012-12-10,83.2,67.7,58.3,71.0,64.9,58.0,97,91,65,30.01,29.83,8,2,16,0.61
2012-12-11,80.7,70.4,64.9,72.0,67.7,64.0,97,91,71,30.06,29.84,5,1,9,0.00
2012-12-12,65.4,60.9,58.3,64.0,59.7,57.0,96,96,94,30.12,30.02,8,2,13,0.88
2012-12-13,62.2,53.3,49.5,61.0,52.0,48.0,96,95,93,30.27,30.08,12,4,16,0.03
2012-12-14,60.7,54.5,49.3,56.0,52.3,48.0,96,92,80,30.30,30.17,10,4,17,0.00
2012-12-15,70.3,60.9,53.6,66.0,58.7,52.0,96,92,83,30.20,30.08,9,1,11,0.00
2012-12-16,77.4,64.0,53.8,70.0,61.6,53.0,97,92,76,30.09,29.94,7,1,11,0.00
2012-12-17,79.6,66.3,57.5,69.0,62.8,56.0,97,89,69,29.96,29.78,10,2,17,0.26
2012-12-18,74.5,63.6,46.5,65.0,56.2,45.0,96,80,42,30.04,29.84,11,2,17,0.00
2012-12-19,71.6,51.1,39.3,55.0,45.9,38.0,97,85,42,30.14,30.04,6,0,9,0.00
2012-12-20,79.6,63.6,45.8,67.0,58.8,45.0,97,86,64,30.09,29.83,15,3,20,0.46
2012-12-21,60.0,50.3,43.8,54.0,32.9,24.0,81,54,31,30.17,29.89,19,7,30,0.00
2012-12-22,63.5,44.8,32.7,35.0,27.9,22.0,94,56,29,30.27,30.17,10,3,19,0.00
2012-12-23,64.2,46.0,28.6,45.0,35.9,27.0,97,73,29,30.27,30.14,3,0,6,0.00
2012-12-24,69.0,56.8,41.4,57.0,50.4,40.0,95,81,62,30.16,29.96,12,2,15,0.00
2012-12-25,75.1,63.2,52.5,65.0,58.6,51.0,94,85,68,30.02,29.89,8,2,13,0.00
2012-12-26,72.5,62.7,42.0,66.0,55.3,35.0,94,77,54,29.98,29.68,18,7,26,0.32
2012-12-27,61.8,45.4,36.2,43.0,37.9,33.0,95,77,51,30.09,29.98,12,3,19,0.00
2012-12-28,64.0,50.4,34.0,59.0,46.2,33.0,97,87,66,30.14,29.91,8,1,11,0.00
2012-12-29,72.8,62.3,43.3,70.0,56.6,36.0,95,82,58,30.17,29.78,14,6,22,0.47
2012-12-30,54.4,43.9,35.8,42.0,35.4,31.0,95,73,52,30.40,30.17,12,4,22,0.00
2012-12-31,69.3,51.8,39.1,57.0,47.6,38.0,95,86,66,30.40,30.23,7,1,11,0.00